x

Isle Of Portland (03857) Weather Station

3:00am - Thu 5th Mar 2015 All times are GMT.

  • Wind
    9mph
  • 空気 Temp 42°f
  • Sea Pressure 1040mb
  • Isle Of Portland
  • Isle Of Portland

More Historic Weather Station data

Upgrade to MSW Pro to gain access to the past 30 days of data for over 8000 Wavebouys and Weather Stations around the globe.

Join Pro

Comparision Forecast

View Surf forecast
   
Thu 03/05 3:00am 9
mph
1040mb 42f
2:00am 9
mph
1041mb 42f
1:00am 10
mph
1040mb 42f
12:00am 14
mph
1040mb 42f
Wed 03/04 11:00pm 15
mph
1040mb 42f
10:00pm 15
mph
1039mb 42f
9:00pm 17
mph
1039mb 43f
8:00pm 17
mph
1038mb 44f
7:00pm 14
mph
1037mb 44f
6:00pm 14
mph
1036mb 46f
5:00pm 11
mph
1036mb 47f
4:00pm 14
mph
1035mb 49f
3:00pm 19
mph
1034mb 49f
2:00pm 21 30 mph 1033mb 48f
12:00pm 23 32 mph 1032mb 46f
11:00am 18
mph
1032mb 45f
10:00am 19
mph
1031mb 44f
9:00am 22 36 mph 1030mb 43f
8:00am 24 34 mph 1029mb 42f
7:00am 23 33 mph 1028mb 42f
6:00am 26 33 mph 1027mb 42f
5:00am 25 33 mph 1026mb 42f
4:00am 24 36 mph 1025mb 42f
3:00am 23 32 mph 1025mb 43f
2:00am 24 33 mph 1024mb 43f
1:00am 25 32 mph 1024mb 43f
12:00am 25 34 mph 1024mb 43f
Tue 03/03 11:00pm 26 34 mph 1024mb 43f
10:00pm 26 36 mph 1023mb 43f
9:00pm 25 34 mph 1022mb 43f
8:00pm 24 34 mph 1022mb 43f
7:00pm 24 37 mph 1021mb 43f
6:00pm 16
mph
1021mb 43f
5:00pm 21 29 mph 1020mb 43f
4:00pm 24 37 mph 1019mb 44f
3:00pm 26 39 mph 1019mb 44f
2:00pm 25 32 mph 1018mb 45f
1:00pm 18 36 mph 1018mb 45f
12:00pm 25 33 mph 1018mb 44f
11:00am 23 33 mph 1017mb 45f
10:00am 21 32 mph 1016mb 44f
9:00am 23 31 mph 1015mb 44f
8:00am 24 33 mph 1015mb 44f
7:00am 23 32 mph 1014mb 44f
6:00am 25 36 mph 1013mb 44f
5:00am 29 51 mph 1013mb 43f
4:00am 24 33 mph 1014mb 45f
3:00am 24 33 mph 1014mb 45f
2:00am 26 36 mph 1015mb 46f
1:00am 22 38 mph 1016mb 45f
12:00am 22 33 mph 1016mb 46f
Mon 03/02 11:00pm 26 36 mph 1016mb 46f
10:00pm 24 34 mph 1017mb 45f
9:00pm 21 30 mph 1016mb 45f
8:00pm 23 31 mph 1016mb 44f
7:00pm 23 32 mph 1016mb 43f
6:00pm 23 32 mph 1015mb 43f
5:00pm 23 31 mph 1015mb 42f
4:00pm 15
mph
1014mb 42f
3:00pm 18 31 mph 1014mb 44f
2:00pm 26 45 mph 1013mb 40f
1:00pm 28 48 mph 1012mb 42f
12:00pm 28 44 mph 1012mb 43f
11:00am 29 46 mph 1011mb 44f
10:00am 36 48 mph 1009mb 43f
9:00am 25 52 mph 1008mb 41f
8:00am 33 48 mph 1007mb 40f
7:00am 30 41 mph 1006mb 42f
6:00am 31 41 mph 1005mb 44f
5:00am 29 36 mph 1004mb 44f
4:00am 24 36 mph 1004mb 44f
3:00am 26 34 mph 1004mb 44f
2:00am 24 38 mph 1004mb 44f
1:00am 28 43 mph 1004mb 44f
12:00am 32 45 mph 1003mb 44f
Sun 03/01 11:00pm 32 41 mph 1003mb 45f
10:00pm 24 45 mph 1002mb 46f
9:00pm 29 48 mph 1002mb 45f
8:00pm 22 37 mph 1002mb 44f
7:00pm 29 39 mph 1001mb 46f
6:00pm 26 32 mph 1000mb 45f
5:00pm 23 46 mph 1000mb 44f
4:00pm 28 36 mph 1000mb 48f
3:00pm 25 38 mph 1001mb 49f
2:00pm 28 34 mph 1002mb 50f
1:00pm 26 34 mph 1003mb 48f
12:00pm 25 33 mph 1004mb 48f
11:00am 17 32 mph 1005mb 47f
10:00am 23 30 mph 1005mb 47f
9:00am 21 33 mph 1005mb 45f
8:00am 26 36 mph 1004mb 47f
7:00am 26 38 mph 1003mb 46f
6:00am 29 45 mph 1003mb 46f
5:00am 30 39 mph 1002mb 48f
4:00am 31 38 mph 1002mb 47f